Погода в Памуккале

Турция     37°54′59″N   29°06′45″E
темп.,
°C
ветер,
м/с
пор.,
м/с
влажн.,
%
обл.,
%
осадки,
мм/ч
давл.,
гПа
погр.,
м
15 августа, пн
пн1500:00+24ссз22430 0.0 100427
03:00+22сз22530 0.0 100527
06:00+20сз11620 0.0 100512
09:00+25юз11470 0.0 1007616
12:00+30зюз23270 0.0 10062196
15:00+33з452055 0.0 10053287
18:00+31ссз55260 0.0 10051589
21:00+25ссз44400 0.0 100760
16 августа, вт
вт1600:00+23с23460 0.0 100925
03:00+22с22520 0.0 101015
06:00+20с22580 0.0 101018
09:00+26св01420 0.0 1011610
12:00+32сз11280 0.0 10101728
15:00+35с22200 0.0 10082455
18:00+34с42200 0.0 10071961
21:00+28с34270 0.0 100934
17 августа, ср
ср1700:00+25ссз34350 0.0 101044
03:00+23с33440 0.0 101029
06:00+22ссв22470 0.0 100919
09:00+28с12330 0.0 1010594
12:00+34с33230 0.0 10081991
15:00+37ссз43150 0.0 10063020
18:00+36ссз44140 0.0 10062948
21:00+29с510250 0.0 1007175
18 августа, чт
чт1800:00+26ссз45330 0.0 100862
03:00+24с33390 0.0 100831
06:00+23с33440 0.0 100829
09:00+28с23360 0.0 1008697
12:00+34с44210 0.0 10072055
15:00+37с43140 0.0 10043244
18:00+37с55120 0.0 10043282
21:00+30ссв611220 0.0 1005247
19 августа, пт
пт1900:00+26ссз44360 0.0 100853
03:00+24с33410 0.0 100828
06:00+22ссв33440 0.0 100824
09:00+28ссв24290 0.0 1009661
12:00+35с57180 0.0 10072244
15:00+38св66140 0.0 10053075
18:00+37ссв77140 0.0 10053156
21:00+30св47250 0.0 100692